[[{"header":{"parameterUnit":"m.s-1","parameterCategory":1,"la1":30.2991,"la2":30.254,"lo1":-89.0895,"lo2":-89.0444,"dy":0.0017,"dx":0.0017,"nx":28,"ny":28,"refTime":"2024-04-26T03:00:00:Z","depth":0,"parameterNumber":2,"parameterNumberName":"U-component_of_WINDS"},"data":[0,0,0,0,0,0,0,0,0,0,0,0,0,0,0,0,0,0,0,0,0,0,0,0,0,0,0,0,0,0,0,0,0,0,0,0,0,0,0,0,0,0,0,0,0,0,0,0,0,0,0,0,0,0,0,0,0,0,-6.9332,-6.9333,0,-6.9394,-6.9394,-6.9395,-6.9322,-6.9319,-6.9317,-6.9314,-6.9372,-6.9376,-6.938,0,0,0,0,0,0,0,0,0,0,0,0,0,-6.9148,-6.9151,-6.9332,-6.9333,-6.9334,-6.9394,-6.9394,-6.9395,-6.9322,-6.9319,-6.9316,-6.9313,-6.9371,-6.9376,-6.9381,0,0,0,0,0,0,0,0,0,0,0,0,0,-6.922,-6.9153,-6.9332,-6.9305,-6.9303,-6.9393,-6.9394,-6.9395,-6.9323,-6.9319,-6.9315,-6.9311,-6.937,-6.9375,-6.9381,-6.95,0,0,-6.94,-6.9403,0,0,0,0,0,0,0,0,-6.9216,-6.9227,-6.9308,-6.9307,-6.9305,-6.9346,-6.9351,-6.943,-6.9324,-6.9315,-6.9314,-6.9309,-6.9367,-6.9373,-6.9393,-6.9503,-6.9506,-6.9401,-6.9404,-6.9407,-6.9409,0,0,0,0,0,0,0,-6.9211,-6.9224,-6.9356,-6.9309,-6.9307,-6.9288,-6.9294,-6.9365,-6.9363,-6.9316,-6.9311,-6.9319,-6.9365,-6.9387,-6.9394,-6.9506,-6.9401,-6.9406,-6.941,-6.9412,-6.9715,-6.972,0,0,0,0,0,0,-6.921,-6.922,-6.9354,-6.9358,-6.925,-6.9295,-6.9301,-6.9337,-6.9362,-6.9362,-6.9323,-6.9316,-6.9379,-6.9387,-6.9396,-6.9534,-6.9407,-6.9413,-6.9416,-6.9711,-6.9716,-6.9721,0,0,0,0,0,0,-6.9206,-6.9223,-6.9352,-6.9288,-6.9303,-6.9302,-6.9343,-6.934,-6.9362,-6.9367,-6.9366,-6.9346,-6.9376,-6.9387,-6.9475,-6.9535,-6.9415,-6.9421,-6.9706,-6.9713,-6.9719,-6.9814,0,0,0,0,0,0,-6.9201,-6.9222,-6.9268,-6.929,-6.9307,-6.9431,-6.9347,-6.9344,-6.9374,-6.9365,-6.9389,-6.9389,-6.9374,-6.9466,-6.9481,-6.9542,-6.9426,-6.97,-6.9709,-6.9717,-6.9806,-6.9823,-6.9838,0,0,0,0,0,-6.9195,-6.9292,-6.9271,-6.9287,-6.9364,-6.9435,-6.9445,-6.9427,-6.9379,-6.9424,-6.9427,-6.9388,-6.9528,-6.9476,-6.9492,-6.9555,-6.9696,-6.9706,-6.9716,-6.9798,-6.982,-6.9838,0,0,0,0,0,0,-6.9275,-6.9294,-6.9271,-6.9378,-6.9406,-6.9423,-6.9479,-6.945,-6.9491,-6.9481,-6.9456,-6.9462,-6.9555,-6.9564,-6.9506,-6.9671,-6.9604,-6.9617,-6.9661,-6.9681,-6.9697,-6.9691,-6.9431,0,0,0,0,0,-6.9306,-6.9363,-6.9376,-6.9469,-6.9484,-6.948,-6.951,-6.9494,-6.9521,-6.9532,-6.9541,-6.9568,-6.9617,-6.965,-6.9697,-6.9808,-6.9811,-6.986,-6.9876,-6.989,-6.99,-6.9958,-6.9979,-6.9753,-6.9753,-6.9753,0,0,-6.9368,-6.9386,-6.9423,-6.9485,-6.9505,-6.9563,-6.949,-6.9555,-6.9597,-6.9541,-6.9624,-6.9633,-6.9661,-6.976,-6.9805,-6.9771,-6.9964,-6.9902,-6.9913,-6.9916,-6.997,-6.9991,-7.001,-6.976,-6.9759,-6.9758,0,0,-6.9511,-6.9532,-6.9611,-6.9632,-6.9664,-6.966,-6.968,-6.9702,-6.9705,-6.9789,-6.9748,-6.9798,-6.9884,-6.9905,-6.9927,-7.0081,-7.0045,-7.0097,-7.0181,-7.0237,-7.0255,-7.027,-7.0322,-7.0341,-7.0108,-7.0108,-7.0109,0,-6.9584,-6.9672,-6.9654,-6.9722,-6.975,-6.9705,-6.9783,-6.9805,-6.9849,-6.9868,-6.9831,-6.9938,-6.9954,-7.0057,-7.0095,-7.0115,-7.0134,-7.0092,-7.0254,-7.0269,-7.0284,-7.0332,-7.0352,-7.0114,-7.0114,-7.0113,-7.0112,0,-6.9759,-6.982,-6.988,-6.9925,-6.996,-7.0033,-7.0025,-7.0062,-7.0044,-7.0044,-7.0129,-7.0147,-7.0195,-7.022,-7.0202,-7.032,-7.0298,-7.0258,-7.0189,-7.0311,-7.0356,-7.0375,-7.0123,-7.012,-7.0119,-7.0117,0,0,-6.9951,-6.9987,-7.0009,-7.0029,-7.0061,-7.0107,-7.0178,-7.0226,-7.0258,-7.0291,-7.0347,-7.0423,-7.0386,-7.0411,-7.0396,-7.0446,-7.0563,-7.0399,-7.04,-7.0426,-7.0691,-7.0718,-7.074,-7.0541,-7.0545,-7.0548,-7.0687,0,-7.0092,-7.0216,-7.0202,-7.0319,-7.0374,-7.0333,-7.0394,-7.042,-7.0422,-7.0468,-7.0471,-7.0523,-7.0472,-7.0487,-7.0535,-7.0538,-7.0615,-7.0529,-7.0591,-7.0593,-7.0581,-7.0764,-7.0793,-7.0924,-7.0705,-7.0708,-7.0711,0,-7.0273,-7.0313,-7.0436,-7.0459,-7.0482,-7.0537,-7.058,-7.0626,-7.0654,-7.0652,-7.0681,-7.0657,-7.0726,-7.066,-7.0753,-7.0695,-7.072,-7.0726,-7.073,-7.0732,-7.0656,-7.0768,-7.0966,-7.0984,-7.0739,-7.0737,-7.0735,0,-7.0397,-7.0482,-7.0566,-7.0585,-7.0615,-7.0654,-7.0668,-7.0693,-7.0722,-7.076,-7.0779,-7.0824,-7.0848,-7.0883,-7.0871,-7.0824,-7.0966,-7.0899,-7.0964,-7.0965,-7.0993,-7.099,-7.1194,-7.1016,-7.1015,-7.1015,-7.1015,0,-7.0554,-7.063,-7.0622,-7.0673,-7.0757,-7.0741,-7.0823,-7.0832,-7.0854,-7.0905,-7.0873,-7.0921,-7.0904,-7.0951,-7.0943,-7.102,-7.1032,-7.1031,-7.1027,-7.1032,-7.1031,-7.1045,-7.1034,-7.102,-7.1019,-7.1018,-7.1017,0,-7.0705,-7.0704,-7.0792,-7.0814,-7.0821,-7.0881,-7.0899,-7.0946,-7.0947,-7.1012,-7.1026,-7.1027,-7.1081,-7.1074,-7.1134,-7.1128,-7.1223,-7.121,-7.1214,-7.1209,-7.1274,-7.1266,-7.149,-7.1517,-7.1325,-7.1327,-7.1328,0,-7.0803,-7.0861,-7.089,-7.0922,-7.0939,-7.0992,-7.1023,-7.101,-7.1043,-7.1079,-7.1122,-7.1173,-7.1213,-7.13,-7.1305,-7.135,-7.1336,-7.1411,-7.1342,-7.1344,-7.1333,-7.1328,-7.1332,-7.1423,-7.1425,-7.1427,-7.1429,0,-7.0977,-7.0974,-7.102,-7.1067,-7.1105,-7.114,-7.1172,-7.12,-7.119,-7.1229,-7.1284,-7.1315,-7.1377,-7.1427,-7.1469,-7.1482,-7.1453,-7.1451,-7.1468,-7.1471,-7.147,-7.1468,-7.1247,-7.1445,-7.1443,-7.1442,-7.1441,-7.1441,-7.1103,-7.1151,-7.1179,-7.1231,-7.1255,-7.1286,-7.1331,-7.1338,-7.1384,-7.1434,-7.1424,-7.1485,-7.1511,-7.1565,-7.1583,-7.163,-7.1602,-7.1627,-7.1633,-7.1638,-7.1644,-7.1466,-7.1638,-7.1637,-7.1637,-7.1637,-7.1636,0,-7.1272,-7.1289,-7.1337,-7.1384,-7.1425,-7.1397,-7.1431,-7.1466,-7.1521,-7.1549,-7.1589,-7.1652,-7.17,-7.171,-7.1756,-7.1792,-7.1779,-7.1804,-7.1799,-7.1802,-7.1668,-7.1647,-7.1813,-7.1813,-7.1813,-7.1813,-7.1813,-7.1813,-7.1365,-7.1445,-7.1445,-7.1536,-7.1551,-7.1612,-7.1634,-7.1661,-7.1683,-7.1755,-7.1795,-7.1802,-7.1822,-7.1869,-7.1912,-7.1914,-7.1931,-7.196,-7.1956,-7.183,-7.1812,-7.1795,-7.1775,-7.1964,-7.1965,-7.2085,-7.2086,-7.2087]},{"header":{"parameterUnit":"m.s-1","parameterCategory":1,"la1":30.2991,"la2":30.254,"lo1":-89.0895,"lo2":-89.0444,"dy":0.0017,"dx":0.0017,"nx":28,"ny":28,"refTime":"2024-04-26T03:00:00:Z","depth":0,"parameterNumber":3,"parameterNumberName":"V-component_of_WINDS"},"data":[0,0,0,0,0,0,0,0,0,0,0,0,0,0,0,0,0,0,0,0,0,0,0,0,0,0,0,0,0,0,0,0,0,0,0,0,0,0,0,0,0,0,0,0,0,0,0,0,0,0,0,0,0,0,0,0,0,0,4.7187,4.7187,0,4.7157,4.7157,4.7157,4.7085,4.7083,4.7082,4.708,4.7049,4.705,4.705,0,0,0,0,0,0,0,0,0,0,0,0,0,4.7182,4.7183,4.7187,4.7187,4.7186,4.7158,4.7157,4.7157,4.7085,4.7083,4.7081,4.708,4.7049,4.705,4.705,0,0,0,0,0,0,0,0,0,0,0,0,0,4.7172,4.7183,4.7187,4.7147,4.7143,4.7158,4.7157,4.7157,4.7085,4.7083,4.7081,4.7079,4.7049,4.705,4.7051,4.7101,0,0,4.7053,4.7054,0,0,0,0,0,0,0,0,4.7172,4.7172,4.7153,4.715,4.7146,4.7122,4.7144,4.7138,4.7086,4.7107,4.708,4.7078,4.7075,4.7074,4.7073,4.71,4.7098,4.7053,4.7054,4.7054,4.7054,0,0,0,0,0,0,0,4.7173,4.7173,4.7175,4.7153,4.7148,4.7131,4.7127,4.7143,4.7104,4.7105,4.71,4.7098,4.7073,4.7073,4.7072,4.7098,4.7053,4.7054,4.7055,4.7055,4.7166,4.7169,0,0,0,0,0,0,4.718,4.7174,4.7176,4.7174,4.7154,4.7133,4.7128,4.7132,4.7104,4.7098,4.7099,4.7094,4.7072,4.7071,4.7071,4.7129,4.7054,4.7055,4.7055,4.7164,4.7167,4.7169,0,0,0,0,0,0,4.718,4.7181,4.7177,4.7173,4.7171,4.7135,4.714,4.7133,4.7132,4.71,4.7092,4.7106,4.707,4.7069,4.7095,4.7127,4.7055,4.7056,4.7161,4.7165,4.7168,4.7245,0,0,0,0,0,0,4.718,4.7181,4.72,4.7174,4.7172,4.7202,4.7142,4.7134,4.7134,4.7127,4.7104,4.7098,4.7069,4.7094,4.7095,4.7127,4.7057,4.7158,4.7163,4.7167,4.724,4.7251,4.7261,0,0,0,0,0,4.718,4.7222,4.7201,4.7202,4.7194,4.7204,4.7202,4.7168,4.7137,4.7156,4.7135,4.7099,4.7123,4.7097,4.7098,4.713,4.7156,4.7161,4.7167,4.7235,4.7249,4.7261,0,0,0,0,0,0,4.7252,4.7218,4.7194,4.7229,4.722,4.7192,4.7214,4.7184,4.7183,4.7176,4.7133,4.7129,4.716,4.7147,4.7119,4.7179,4.7134,4.714,4.7185,4.7198,4.7209,4.7211,4.7058,0,0,0,0,0,4.7272,4.7283,4.7252,4.7286,4.7283,4.725,4.7252,4.7227,4.7216,4.7211,4.7192,4.7183,4.7188,4.7193,4.7196,4.7238,4.7232,4.7261,4.7272,4.7281,4.7286,4.7309,4.7321,4.7187,4.7187,4.7187,0,0,4.7313,4.7296,4.7305,4.73,4.729,4.7302,4.7246,4.7262,4.727,4.7213,4.7236,4.7222,4.7209,4.7243,4.7257,4.7234,4.7322,4.7288,4.7295,4.7295,4.7316,4.7328,4.734,4.7191,4.719,4.719,0,0,4.7394,4.7382,4.7409,4.7401,4.7387,4.7365,4.7372,4.7349,4.7337,4.736,4.7317,4.7328,4.7338,4.7331,4.7328,4.741,4.7377,4.7412,4.7467,4.749,4.75,4.7509,4.7539,4.755,4.7418,4.7418,4.7418,0,4.7446,4.7463,4.7427,4.7445,4.7445,4.7395,4.7423,4.7416,4.7404,4.7405,4.7379,4.7393,4.738,4.7412,4.7433,4.7432,4.7439,4.7414,4.7502,4.7511,4.7519,4.7546,4.7557,4.7422,4.7422,4.7421,4.7421,0,4.7529,4.7542,4.7566,4.7556,4.7558,4.7581,4.7549,4.7556,4.7531,4.7512,4.7536,4.752,4.752,4.7526,4.7501,4.7555,4.7541,4.751,4.7463,4.7536,4.7562,4.7572,4.7429,4.7427,4.7426,4.7425,0,0,4.7652,4.7624,4.7633,4.7629,4.7611,4.762,4.7642,4.7642,4.7649,4.7644,4.7661,4.7672,4.7643,4.7641,4.7615,4.7635,4.7701,4.7601,4.76,4.762,4.7761,4.7785,4.7798,4.768,4.7682,4.7683,4.7762,0,4.7729,4.7764,4.7733,4.7773,4.7785,4.7739,4.7758,4.775,4.7733,4.7741,4.7723,4.7732,4.7692,4.7691,4.7709,4.769,4.7729,4.7684,4.7696,4.7697,4.77,4.7811,4.7835,4.7911,4.7772,4.7774,4.7775,0,4.7822,4.7821,4.7864,4.7845,4.7849,4.7866,4.7865,4.7873,4.7863,4.785,4.7849,4.7818,4.7838,4.7794,4.7822,4.7792,4.7795,4.7787,4.7789,4.7788,4.774,4.7813,4.7934,4.7945,4.779,4.7789,4.7788,0,4.7908,4.7918,4.7945,4.7943,4.7921,4.7935,4.7926,4.7914,4.7917,4.7916,4.7918,4.792,4.792,4.7923,4.7894,4.7864,4.7926,4.7879,4.7915,4.7916,4.7929,4.7929,4.8052,4.7933,4.7933,4.7932,4.7932,0,4.7996,4.8024,4.7983,4.8,4.803,4.7995,4.8026,4.8013,4.8003,4.8017,4.7977,4.7991,4.7952,4.7962,4.794,4.7967,4.7967,4.7957,4.7951,4.7961,4.7962,4.7962,4.7956,4.7935,4.7935,4.7934,4.7934,0,4.8097,4.8071,4.8097,4.8076,4.8071,4.8094,4.8076,4.809,4.8072,4.809,4.8092,4.8064,4.8074,4.8045,4.805,4.8035,4.8075,4.806,4.8078,4.8074,4.8112,4.8109,4.8239,4.8255,4.8126,4.8127,4.8128,0,4.8155,4.8175,4.8156,4.8163,4.8157,4.8168,4.8171,4.8138,4.8143,4.8134,4.8151,4.8157,4.8161,4.8179,4.8158,4.8163,4.8148,4.8193,4.8148,4.8157,4.8148,4.8148,4.815,4.8202,4.8204,4.8205,4.8206,0,4.826,4.8247,4.8253,4.8255,4.8261,4.8261,4.8258,4.8266,4.823,4.8238,4.8248,4.8251,4.8257,4.8265,4.8265,4.8256,4.8226,4.8221,4.823,4.8239,4.8249,4.8245,4.8104,4.8218,4.8217,4.8216,4.8215,4.8215,4.8341,4.8358,4.8348,4.8356,4.8351,4.835,4.8363,4.8348,4.8355,4.8358,4.8338,4.8353,4.8344,4.8341,4.8336,4.8347,4.8326,4.8339,4.8342,4.8345,4.8352,4.8248,4.8347,4.8347,4.8346,4.8346,4.8346,0,4.8445,4.8437,4.8445,4.8443,4.845,4.8422,4.8418,4.8426,4.8439,4.8434,4.8439,4.8451,4.8459,4.844,4.8445,4.8458,4.8444,4.846,4.8458,4.8457,4.837,4.8362,4.8471,4.8471,4.8471,4.8471,4.8471,4.8471,4.85,4.8527,4.8512,4.8537,4.8528,4.8543,4.8543,4.8542,4.8538,4.8553,4.856,4.8548,4.8537,4.8542,4.8548,4.8542,4.8546,4.8567,4.8557,4.8475,4.8463,4.8451,4.8444,4.8568,4.8568,4.8642,4.8643,4.8644]}]]